This is the latest recevied weather packets stored in our database for station/object N8HON. If no packets are shown the sender has not sent any weather packets the latest 10 day(s).
| Time | Temp. | Humidity | Pressure | Rain* | Wind** | Luminosity | Snow |
|---|---|---|---|---|---|---|---|
| 1777733945 | 9.44° C | 53% | 1012.5 hPa | 0 mm | - | 473 W/m² | - |
| 1777733642 | 10° C | 47% | 1012.5 hPa | 0 mm | - | 450 W/m² | - |
| 1777733338 | 9.44° C | 48% | 1012.4 hPa | 0 mm | - | 535 W/m² | - |
| 1777733035 | 10° C | 49% | 1012.4 hPa | 0 mm | - | 452 W/m² | - |
| 1777732731 | 9.44° C | 47% | 1012.6 hPa | 0 mm | - | 442 W/m² | - |
| 1777732428 | 9.44° C | 49% | 1012.6 hPa | 0 mm | - | 421 W/m² | - |
| 1777732126 | 8.89° C | 48% | 1012.5 hPa | 0 mm | - | 416 W/m² | - |
| 1777731823 | 8.89° C | 50% | 1012.6 hPa | 0 mm | - | 474 W/m² | - |
| 1777731519 | 8.89° C | 52% | 1012.6 hPa | 0 mm | - | 377 W/m² | - |
| 1777731218 | 8.89° C | 53% | 1012.4 hPa | 0 mm | - | 445 W/m² | - |
| 1777730915 | 8.89° C | 51% | 1012.7 hPa | 0 mm | - | 284 W/m² | - |
| 1777730612 | 8.33° C | 55% | 1012.6 hPa | 0 mm | - | 297 W/m² | - |
| 1777730309 | 7.78° C | 58% | 1012.7 hPa | 0 mm | - | 284 W/m² | - |
| 1777730006 | 7.78° C | 59% | 1012.6 hPa | 0 mm | - | 249 W/m² | - |
| 1777729701 | 7.78° C | 59% | 1012.6 hPa | 0 mm | - | 249 W/m² | - |
| 1777729399 | 7.78° C | 57% | 1012.2 hPa | 0 mm | - | 237 W/m² | - |
| 1777729095 | 8.33° C | 57% | 1012.6 hPa | 0 mm | - | 260 W/m² | - |
| 1777728792 | 8.33° C | 57% | 1012.4 hPa | 0 mm | - | 273 W/m² | - |
| 1777728489 | 7.78° C | 58% | 1012.5 hPa | 0 mm | - | 275 W/m² | - |
| 1777728186 | 7.78° C | 57% | 1012.3 hPa | 0 mm | - | 238 W/m² | - |
| 1777727883 | 7.78° C | 58% | 1012.5 hPa | 0 mm | - | 256 W/m² | - |
| 1777727580 | 7.78° C | 60% | 1012.5 hPa | 0 mm | - | 177 W/m² | - |
| 1777727277 | 7.22° C | 63% | 1012.3 hPa | 0 mm | - | 303 W/m² | - |
| 1777726975 | 7.22° C | 65% | 1012 hPa | 0 mm | - | 276 W/m² | - |
| 1777726671 | 6.67° C | 67% | 1012.3 hPa | 0 mm | - | 246 W/m² | - |
* Rain latest hour (hover to see other rain measurements)
** Current wind speed in m/s (hover to see current wind gust speed)